Time,TemperatureF,DewpointF,PressureIn,WindDirection,WindDirectionDegrees,WindSpeedMPH,WindSpeedGustMPH,Humidity,HourlyPrecipIn,Conditions,Clouds,dailyrainin,SoftwareType,DateUTC
2014-09-17 00:02:00,80.8,73.6,29.94,NE,45,1.0,5.0,79,0.00,,,0.06,meteohub,2014-09-17 05:02:00,
2014-09-17 00:07:00,80.6,73.4,29.94,NE,45,2.0,5.0,79,0.00,,,0.06,meteohub,2014-09-17 05:07:00,
2014-09-17 00:12:00,80.4,73.2,29.94,NE,45,2.0,3.0,79,0.00,,,0.00,meteohub,2014-09-17 05:12:00,
2014-09-17 00:17:00,80.4,73.2,29.94,NE,45,5.0,5.0,79,0.00,,,0.00,meteohub,2014-09-17 05:17:00,
2014-09-17 00:22:00,80.4,73.2,29.94,ENE,68,0.0,5.0,79,0.00,,,0.00,meteohub,2014-09-17 05:22:00,
2014-09-17 00:27:00,80.4,73.2,29.94,ENE,68,2.0,5.0,79,0.00,,,0.00,meteohub,2014-09-17 05:27:00,
2014-09-17 00:32:00,80.4,73.2,29.94,NE,45,0.0,5.0,79,0.00,,,0.00,meteohub,2014-09-17 05:32:00,
2014-09-17 00:37:00,80.4,73.8,29.94,East,90,3.0,3.0,80,0.00,,,0.00,meteohub,2014-09-17 05:37:00,
2014-09-17 00:42:00,80.4,73.8,29.94,ENE,68,4.0,4.0,80,0.00,,,0.00,meteohub,2014-09-17 05:42:00,
2014-09-17 00:47:00,80.2,73.6,29.94,East,90,2.0,4.0,80,0.00,,,0.00,meteohub,2014-09-17 05:47:00,
2014-09-17 00:52:00,80.2,73.6,29.93,NE,45,1.0,4.0,80,0.00,,,0.00,meteohub,2014-09-17 05:52:00,
2014-09-17 00:57:00,80.2,73.6,29.93,ENE,68,5.0,5.0,80,0.00,,,0.00,meteohub,2014-09-17 05:57:00,
2014-09-17 01:02:00,80.2,73.6,29.93,ENE,68,1.0,5.0,80,0.00,,,0.00,meteohub,2014-09-17 06:02:00,
2014-09-17 01:07:00,80.2,73.6,29.93,ESE,113,0.0,5.0,80,0.00,,,0.00,meteohub,2014-09-17 06:07:00,
2014-09-17 01:12:00,80.2,73.6,29.93,East,90,3.0,5.0,80,0.00,,,0.00,meteohub,2014-09-17 06:12:00,
2014-09-17 01:17:00,80.2,73.6,29.92,East,90,4.0,4.0,80,0.00,,,0.00,meteohub,2014-09-17 06:17:00,
2014-09-17 01:22:00,80.2,73.6,29.93,ESE,113,1.0,4.0,80,0.00,,,0.00,meteohub,2014-09-17 06:22:00,
2014-09-17 01:27:00,80.2,73.6,29.93,ENE,68,3.0,4.0,80,0.00,,,0.00,meteohub,2014-09-17 06:27:00,
2014-09-17 01:32:00,80.2,73.6,29.93,NE,45,2.0,4.0,80,0.00,,,0.00,meteohub,2014-09-17 06:32:00,
2014-09-17 01:37:00,80.1,73.4,29.93,ENE,68,2.0,4.0,80,0.00,,,0.00,meteohub,2014-09-17 06:37:00,
2014-09-17 01:42:00,79.9,73.2,29.93,ENE,68,4.0,4.0,80,0.00,,,0.00,meteohub,2014-09-17 06:42:00,
2014-09-17 01:45:00,79.9,73.2,29.92,NE,45,3.0,4.0,80,0.00,,,0.00,meteohub,2014-09-17 06:45:00,
2014-09-17 01:50:00,79.9,73.2,29.92,ENE,68,4.0,4.0,80,0.00,,,0.00,meteohub,2014-09-17 06:50:00,
2014-09-17 01:56:00,79.9,73.2,29.92,East,90,0.0,4.0,80,0.00,,,0.00,meteohub,2014-09-17 06:56:00,
2014-09-17 02:01:00,79.9,73.2,29.92,ESE,113,0.0,4.0,80,0.00,,,0.00,meteohub,2014-09-17 07:01:00,
2014-09-17 02:04:00,79.9,73.2,29.92,ESE,113,0.0,4.0,80,0.00,,,0.00,meteohub,2014-09-17 07:04:00,
2014-09-17 02:09:00,79.9,73.2,29.92,ESE,113,0.0,4.0,80,0.00,,,0.00,meteohub,2014-09-17 07:09:00,
2014-09-17 02:11:00,79.9,73.2,29.92,ESE,113,0.0,0.0,80,0.00,,,0.00,meteohub,2014-09-17 07:11:00,
2014-09-17 02:16:00,79.9,73.2,29.92,SE,135,0.0,0.0,80,0.00,,,0.00,meteohub,2014-09-17 07:16:00,
2014-09-17 02:21:00,79.9,73.2,29.91,SE,135,0.0,0.0,80,0.00,,,0.00,meteohub,2014-09-17 07:21:00,
2014-09-17 02:26:00,79.9,73.2,29.90,SE,135,0.0,0.0,80,0.00,,,0.00,meteohub,2014-09-17 07:26:00,
2014-09-17 02:31:00,79.9,73.2,29.90,SE,135,2.0,0.0,80,0.00,,,0.00,meteohub,2014-09-17 07:31:00,
2014-09-17 02:36:00,79.9,73.2,29.90,SE,135,0.0,2.0,80,0.00,,,0.00,meteohub,2014-09-17 07:36:00,
2014-09-17 02:41:00,79.9,73.2,29.89,SE,135,2.0,5.0,80,0.00,,,0.00,meteohub,2014-09-17 07:41:00,
2014-09-17 02:46:00,79.9,73.2,29.90,SSE,158,1.0,5.0,80,0.00,,,0.00,meteohub,2014-09-17 07:46:00,
2014-09-17 02:51:00,79.9,73.2,29.89,SE,135,2.0,5.0,80,0.00,,,0.00,meteohub,2014-09-17 07:51:00,
2014-09-17 02:57:00,79.9,73.2,29.89,ESE,113,1.0,5.0,80,0.00,,,0.00,meteohub,2014-09-17 07:57:00,
2014-09-17 03:02:00,79.9,73.2,29.89,SE,135,1.0,5.0,80,0.00,,,0.00,meteohub,2014-09-17 08:02:00,
2014-09-17 03:07:00,79.9,73.2,29.89,East,90,3.0,6.0,80,0.00,,,0.00,meteohub,2014-09-17 08:07:00,
2014-09-17 03:12:00,79.9,73.6,29.89,SE,135,1.0,6.0,81,0.00,,,0.00,meteohub,2014-09-17 08:12:00,
2014-09-17 03:17:00,79.7,73.4,29.89,SE,135,0.0,6.0,81,0.00,,,0.00,meteohub,2014-09-17 08:17:00,
2014-09-17 03:22:00,79.7,73.4,29.89,SE,135,0.0,3.0,81,0.00,,,0.00,meteohub,2014-09-17 08:22:00,
2014-09-17 03:27:00,79.7,73.4,29.89,SSE,158,2.0,3.0,81,0.00,,,0.00,meteohub,2014-09-17 08:27:00,
2014-09-17 03:32:00,79.5,73.2,29.89,SE,135,2.0,2.0,81,0.00,,,0.00,meteohub,2014-09-17 08:32:00,
2014-09-17 03:37:00,79.5,73.2,29.89,ESE,113,2.0,2.0,81,0.00,,,0.00,meteohub,2014-09-17 08:37:00,
2014-09-17 03:42:00,79.5,73.6,29.89,ESE,113,3.0,3.0,82,0.00,,,0.00,meteohub,2014-09-17 08:42:00,
2014-09-17 03:47:00,79.5,73.6,29.89,SE,135,5.0,5.0,82,0.00,,,0.00,meteohub,2014-09-17 08:47:00,
2014-09-17 03:52:00,79.3,73.4,29.88,SSE,158,3.0,5.0,82,0.00,,,0.00,meteohub,2014-09-17 08:52:00,
2014-09-17 03:57:00,79.3,73.4,29.89,ESE,113,1.0,5.0,82,0.00,,,0.00,meteohub,2014-09-17 08:57:00,
2014-09-17 04:02:00,79.3,73.4,29.88,SE,135,0.0,5.0,82,0.00,,,0.00,meteohub,2014-09-17 09:02:00,
2014-09-17 04:07:00,79.2,73.2,29.88,South,180,0.0,4.0,82,0.00,,,0.00,meteohub,2014-09-17 09:07:00,
2014-09-17 04:12:00,79.2,73.2,29.88,SSE,158,0.0,1.0,82,0.00,,,0.00,meteohub,2014-09-17 09:12:00,
2014-09-17 04:17:00,79.0,73.0,29.88,SE,135,0.0,0.0,82,0.00,,,0.00,meteohub,2014-09-17 09:17:00,
2014-09-17 04:22:00,79.0,73.4,29.88,SE,135,0.0,1.0,83,0.00,,,0.00,meteohub,2014-09-17 09:22:00,
2014-09-17 04:27:00,79.0,73.4,29.88,SE,135,0.0,2.0,83,0.00,,,0.00,meteohub,2014-09-17 09:27:00,
2014-09-17 04:32:00,79.0,73.4,29.88,SE,135,0.0,2.0,83,0.00,,,0.00,meteohub,2014-09-17 09:32:00,
2014-09-17 04:37:00,78.8,73.2,29.88,SSE,158,0.0,4.0,83,0.00,,,0.00,meteohub,2014-09-17 09:37:00,
2014-09-17 04:42:00,78.6,73.0,29.88,SSE,158,2.0,4.0,83,0.00,,,0.00,meteohub,2014-09-17 09:42:00,
2014-09-17 04:47:00,78.6,73.0,29.89,ESE,113,0.0,4.0,83,0.00,,,0.00,meteohub,2014-09-17 09:47:00,
2014-09-17 04:52:00,78.6,73.0,29.88,SE,135,0.0,3.0,83,0.00,,,0.00,meteohub,2014-09-17 09:52:00,
2014-09-17 04:57:00,78.6,73.0,29.88,SE,135,2.0,2.0,83,0.00,,,0.00,meteohub,2014-09-17 09:57:00,
2014-09-17 05:02:00,78.6,73.0,29.88,SE,135,1.0,2.0,83,0.00,,,0.00,meteohub,2014-09-17 10:02:00,
2014-09-17 05:07:00,78.6,73.0,29.88,SE,135,0.0,2.0,83,0.00,,,0.00,meteohub,2014-09-17 10:07:00,
2014-09-17 05:12:00,78.6,73.4,29.88,SE,135,2.0,2.0,84,0.00,,,0.00,meteohub,2014-09-17 10:12:00,
2014-09-17 05:17:00,78.6,73.4,29.88,SE,135,1.0,2.0,84,0.00,,,0.00,meteohub,2014-09-17 10:17:00,
2014-09-17 05:22:00,78.6,73.4,29.88,SE,135,0.0,2.0,84,0.00,,,0.00,meteohub,2014-09-17 10:22:00,
2014-09-17 05:27:00,78.6,73.4,29.88,SE,135,1.0,2.0,84,0.00,,,0.00,meteohub,2014-09-17 10:27:00,
2014-09-17 05:32:00,78.6,73.4,29.88,East,90,2.0,5.0,84,0.00,,,0.00,meteohub,2014-09-17 10:32:00,
2014-09-17 05:37:00,78.6,73.4,29.88,ENE,68,1.0,5.0,84,0.00,,,0.00,meteohub,2014-09-17 10:37:00,
2014-09-17 05:42:00,78.4,73.2,29.88,ESE,113,3.0,5.0,84,0.00,,,0.00,meteohub,2014-09-17 10:42:00,
2014-09-17 05:48:00,78.4,73.2,29.89,East,90,0.0,3.0,84,0.00,,,0.00,meteohub,2014-09-17 10:48:00,
2014-09-17 05:53:00,78.4,73.2,29.89,ESE,113,0.0,3.0,84,0.00,,,0.00,meteohub,2014-09-17 10:53:00,
2014-09-17 05:56:00,78.4,73.2,29.88,ESE,113,0.0,3.0,84,0.00,,,0.00,meteohub,2014-09-17 10:56:00,
2014-09-17 06:01:00,78.3,73.0,29.89,East,90,0.0,2.0,84,0.00,,,0.00,meteohub,2014-09-17 11:01:00,
2014-09-17 06:06:00,78.1,72.9,29.88,ESE,113,0.0,1.0,84,0.00,,,0.00,meteohub,2014-09-17 11:06:00,
2014-09-17 06:11:00,78.1,72.9,29.89,ENE,68,2.0,2.0,84,0.00,,,0.00,meteohub,2014-09-17 11:11:00,
2014-09-17 06:16:00,78.1,72.9,29.89,ESE,113,0.0,2.0,84,0.00,,,0.00,meteohub,2014-09-17 11:16:00,
2014-09-17 06:21:00,77.9,72.7,29.88,ESE,113,0.0,2.0,84,0.00,,,0.00,meteohub,2014-09-17 11:21:00,
2014-09-17 06:26:00,77.9,72.7,29.89,SE,135,2.0,2.0,84,0.00,,,0.00,meteohub,2014-09-17 11:26:00,
2014-09-17 06:31:00,77.7,72.5,29.89,ESE,113,1.0,2.0,84,0.00,,,0.00,meteohub,2014-09-17 11:31:00,
2014-09-17 06:36:00,77.7,72.5,29.89,ESE,113,0.0,2.0,84,0.00,,,0.00,meteohub,2014-09-17 11:36:00,
2014-09-17 06:42:00,77.7,72.5,29.89,ESE,113,0.0,2.0,84,0.00,,,0.00,meteohub,2014-09-17 11:42:00,
2014-09-17 06:47:00,77.7,72.9,29.89,ENE,68,0.0,3.0,85,0.00,,,0.00,meteohub,2014-09-17 11:47:00,
2014-09-17 06:52:00,77.5,72.7,29.90,SE,135,1.0,3.0,85,0.00,,,0.00,meteohub,2014-09-17 11:52:00,
2014-09-17 06:57:00,77.5,72.7,29.89,ESE,113,0.0,2.0,85,0.00,,,0.00,meteohub,2014-09-17 11:57:00,
2014-09-17 07:02:00,77.5,72.7,29.90,ESE,113,0.0,2.0,85,0.00,,,0.00,meteohub,2014-09-17 12:02:00,
2014-09-17 07:07:00,77.5,72.7,29.90,ENE,68,0.0,1.0,85,0.00,,,0.00,meteohub,2014-09-17 12:07:00,
2014-09-17 07:12:00,77.5,72.7,29.90,SE,135,0.0,0.0,85,0.00,,,0.00,meteohub,2014-09-17 12:12:00,
2014-09-17 07:17:00,77.5,72.7,29.90,ESE,113,1.0,0.0,85,0.00,,,0.00,meteohub,2014-09-17 12:17:00,
2014-09-17 07:22:00,77.5,72.7,29.91,ESE,113,0.0,2.0,85,0.00,,,0.00,meteohub,2014-09-17 12:22:00,
2014-09-17 07:27:00,77.7,72.9,29.91,ESE,113,0.0,2.0,85,0.00,,,0.00,meteohub,2014-09-17 12:27:00,
2014-09-17 07:32:00,77.7,72.9,29.91,SE,135,3.0,3.0,85,0.00,,,0.00,meteohub,2014-09-17 12:32:00,
2014-09-17 07:37:00,78.1,73.2,29.91,SE,135,0.0,3.0,85,0.00,,,0.00,meteohub,2014-09-17 12:37:00,
2014-09-17 07:42:00,78.1,73.2,29.91,SE,135,5.0,5.0,85,0.00,,,0.00,meteohub,2014-09-17 12:42:00,
2014-09-17 07:47:00,78.4,73.6,29.91,SE,135,2.0,5.0,85,0.00,,,0.00,meteohub,2014-09-17 12:47:00,
2014-09-17 07:52:00,78.4,73.6,29.91,ENE,68,0.0,5.0,85,0.00,,,0.00,meteohub,2014-09-17 12:52:00,
2014-09-17 07:57:00,78.6,73.8,29.91,ESE,113,0.0,5.0,85,0.00,,,0.00,meteohub,2014-09-17 12:57:00,
2014-09-17 08:02:00,78.6,73.8,29.91,East,90,2.0,2.0,85,0.00,,,0.00,meteohub,2014-09-17 13:02:00,
2014-09-17 08:07:00,79.0,74.1,29.91,ESE,113,0.0,2.0,85,0.00,,,0.00,meteohub,2014-09-17 13:07:00,
2014-09-17 08:12:00,79.0,74.1,29.92,ESE,113,0.0,2.0,85,0.00,,,0.00,meteohub,2014-09-17 13:12:00,
2014-09-17 08:17:00,79.2,74.3,29.92,SE,135,3.0,3.0,85,0.00,,,0.00,meteohub,2014-09-17 13:17:00,
2014-09-17 08:22:00,79.3,74.5,29.92,SE,135,0.0,3.0,85,0.00,,,0.00,meteohub,2014-09-17 13:22:00,
2014-09-17 08:27:00,79.5,74.3,29.92,SE,135,0.0,3.0,84,0.00,,,0.00,meteohub,2014-09-17 13:27:00,
2014-09-17 08:32:00,79.7,74.5,29.92,SE,135,0.0,3.0,84,0.00,,,0.00,meteohub,2014-09-17 13:32:00,
2014-09-17 08:37:00,80.1,75.2,29.92,ESE,113,1.0,2.0,85,0.00,,,0.00,meteohub,2014-09-17 13:37:00,
2014-09-17 08:42:00,80.2,75.0,29.92,ESE,113,0.0,5.0,84,0.00,,,0.00,meteohub,2014-09-17 13:42:00,
2014-09-17 08:47:00,80.2,75.0,29.93,SE,135,0.0,5.0,84,0.00,,,0.00,meteohub,2014-09-17 13:47:00,
2014-09-17 08:52:00,80.2,75.0,29.93,SE,135,0.0,4.0,84,0.00,,,0.00,meteohub,2014-09-17 13:52:00,
2014-09-17 08:57:00,80.4,74.8,29.93,SE,135,0.0,4.0,83,0.00,,,0.00,meteohub,2014-09-17 13:57:00,
2014-09-17 09:02:00,80.6,75.0,29.93,ENE,68,0.0,4.0,83,0.00,,,0.00,meteohub,2014-09-17 14:02:00,
2014-09-17 09:07:00,80.8,75.2,29.93,SE,135,1.0,4.0,83,0.00,,,0.00,meteohub,2014-09-17 14:07:00,
2014-09-17 09:12:00,81.1,75.2,29.93,SE,135,1.0,4.0,82,0.00,,,0.00,meteohub,2014-09-17 14:12:00,
2014-09-17 09:17:00,81.1,74.7,29.93,SSE,158,0.0,4.0,81,0.00,,,0.00,meteohub,2014-09-17 14:17:00,
2014-09-17 09:22:00,81.3,74.8,29.93,East,90,3.0,3.0,81,0.00,,,0.00,meteohub,2014-09-17 14:22:00,
2014-09-17 09:27:00,81.5,75.0,29.93,ENE,68,4.0,4.0,81,0.00,,,0.00,meteohub,2014-09-17 14:27:00,
2014-09-17 09:32:00,81.7,74.8,29.93,SE,135,4.0,4.0,80,0.00,,,0.00,meteohub,2014-09-17 14:32:00,
2014-09-17 09:37:00,81.9,75.0,29.93,SE,135,5.0,5.0,80,0.00,,,0.00,meteohub,2014-09-17 14:37:00,
2014-09-17 09:42:00,82.0,74.8,29.93,SSE,158,2.0,5.0,79,0.00,,,0.00,meteohub,2014-09-17 14:42:00,
2014-09-17 09:47:00,82.2,74.7,29.93,SE,135,3.0,5.0,78,0.00,,,0.00,meteohub,2014-09-17 14:47:00,
2014-09-17 09:52:00,82.2,74.7,29.93,SSE,158,0.0,5.0,78,0.00,,,0.00,meteohub,2014-09-17 14:52:00,
2014-09-17 09:57:00,82.6,74.7,29.93,SSE,158,0.0,4.0,77,0.00,,,0.00,meteohub,2014-09-17 14:57:00,
2014-09-17 10:02:00,82.8,74.8,29.93,ENE,68,2.0,4.0,77,0.00,,,0.00,meteohub,2014-09-17 15:02:00,
2014-09-17 10:07:00,82.9,74.7,29.93,ENE,68,5.0,5.0,76,0.00,,,0.00,meteohub,2014-09-17 15:07:00,
2014-09-17 10:12:00,83.1,74.8,29.93,NE,45,0.0,5.0,76,0.00,,,0.00,meteohub,2014-09-17 15:12:00,
2014-09-17 10:17:00,83.3,75.0,29.93,ESE,113,0.0,5.0,76,0.00,,,0.00,meteohub,2014-09-17 15:17:00,
2014-09-17 10:22:00,83.5,74.7,29.93,East,90,2.0,5.0,75,0.00,,,0.00,meteohub,2014-09-17 15:22:00,
2014-09-17 10:24:00,83.7,74.5,29.93,ENE,68,0.0,5.0,74,0.00,,,0.00,meteohub,2014-09-17 15:24:00,
2014-09-17 10:30:00,83.8,74.3,29.93,SSE,158,1.0,2.0,73,0.00,,,0.00,meteohub,2014-09-17 15:30:00,
2014-09-17 10:35:00,84.2,74.7,29.92,SE,135,0.0,2.0,73,0.00,,,0.00,meteohub,2014-09-17 15:35:00,
2014-09-17 10:40:00,84.4,74.3,29.92,SE,135,3.0,6.0,72,0.00,,,0.00,meteohub,2014-09-17 15:40:00,
2014-09-17 10:45:00,84.6,75.0,29.92,ESE,113,4.0,6.0,73,0.00,,,0.00,meteohub,2014-09-17 15:45:00,
2014-09-17 10:50:00,84.7,74.7,29.92,SE,135,0.0,4.0,72,0.00,,,0.00,meteohub,2014-09-17 15:50:00,
2014-09-17 10:55:00,85.1,74.7,29.92,South,180,2.0,5.0,71,0.00,,,0.00,meteohub,2014-09-17 15:55:00,
2014-09-17 11:00:00,85.3,74.3,29.92,South,180,9.0,9.0,70,0.00,,,0.00,meteohub,2014-09-17 16:00:00,
2014-09-17 11:05:00,85.6,74.3,29.92,South,180,0.0,9.0,69,0.00,,,0.00,meteohub,2014-09-17 16:05:00,
2014-09-17 11:10:00,85.8,74.5,29.91,SE,135,0.0,9.0,69,0.00,,,0.00,meteohub,2014-09-17 16:10:00,
2014-09-17 11:15:00,86.4,74.1,29.91,NE,45,1.0,9.0,67,0.00,,,0.00,meteohub,2014-09-17 16:15:00,
2014-09-17 11:20:00,86.5,73.8,29.91,South,180,4.0,4.0,66,0.00,,,0.00,meteohub,2014-09-17 16:20:00,
2014-09-17 11:25:00,86.7,73.6,29.91,SE,135,3.0,5.0,65,0.00,,,0.00,meteohub,2014-09-17 16:25:00,
2014-09-17 11:31:00,87.1,73.9,29.91,ENE,68,3.0,5.0,65,0.00,,,0.00,meteohub,2014-09-17 16:31:00,
2014-09-17 11:36:00,87.4,73.2,29.91,ENE,68,2.0,5.0,63,0.00,,,0.00,meteohub,2014-09-17 16:36:00,
2014-09-17 11:41:00,87.8,73.6,29.91,SE,135,2.0,5.0,63,0.00,,,0.00,meteohub,2014-09-17 16:41:00,
2014-09-17 11:46:00,88.3,74.1,29.90,SSW,203,1.0,5.0,63,0.00,,,0.00,meteohub,2014-09-17 16:46:00,
2014-09-17 11:51:00,88.7,74.5,29.90,SE,135,5.0,5.0,63,0.00,,,0.00,meteohub,2014-09-17 16:51:00,
2014-09-17 11:56:00,88.9,74.1,29.90,SE,135,5.0,5.0,62,0.00,,,0.00,meteohub,2014-09-17 16:56:00,
2014-09-17 12:01:00,89.2,74.5,29.89,SSE,158,4.0,5.0,62,0.00,,,0.00,meteohub,2014-09-17 17:01:00,
2014-09-17 12:06:00,89.4,74.1,29.89,SSW,203,7.0,7.0,61,0.00,,,0.00,meteohub,2014-09-17 17:06:00,
2014-09-17 12:11:00,89.8,74.1,29.89,SSE,158,4.0,8.0,60,0.00,,,0.00,meteohub,2014-09-17 17:11:00,
2014-09-17 12:16:00,90.1,73.4,29.88,SSW,203,5.0,8.0,58,0.00,,,0.00,meteohub,2014-09-17 17:16:00,
2014-09-17 12:21:00,90.3,73.6,29.88,SSE,158,1.0,8.0,58,0.00,,,0.00,meteohub,2014-09-17 17:21:00,
2014-09-17 12:27:00,91.0,74.1,29.88,SSE,158,1.0,8.0,58,0.00,,,0.00,meteohub,2014-09-17 17:27:00,
2014-09-17 12:32:00,91.4,73.9,29.88,SSW,203,6.0,6.0,57,0.00,,,0.00,meteohub,2014-09-17 17:32:00,
2014-09-17 12:37:00,91.9,73.9,29.87,SSE,158,4.0,6.0,56,0.00,,,0.00,meteohub,2014-09-17 17:37:00,
2014-09-17 12:42:00,92.7,74.7,29.87,SSW,203,6.0,6.0,56,0.00,,,0.00,meteohub,2014-09-17 17:42:00,
2014-09-17 12:47:00,92.8,74.3,29.87,SE,135,4.0,6.0,55,0.00,,,0.00,meteohub,2014-09-17 17:47:00,
2014-09-17 12:52:00,93.2,74.1,29.87,South,180,6.0,6.0,54,0.00,,,0.00,meteohub,2014-09-17 17:52:00,
2014-09-17 12:57:00,93.6,73.8,29.87,SSW,203,4.0,6.0,53,0.00,,,0.00,meteohub,2014-09-17 17:57:00,
2014-09-17 13:02:00,93.9,73.6,29.87,SW,225,3.0,6.0,52,0.00,,,0.00,meteohub,2014-09-17 18:02:00,
2014-09-17 13:07:00,94.1,73.2,29.86,SE,135,0.0,6.0,51,0.00,,,0.00,meteohub,2014-09-17 18:07:00,
2014-09-17 13:09:00,94.8,74.5,29.86,SE,135,0.0,6.0,52,0.00,,,0.00,meteohub,2014-09-17 18:09:00,
2014-09-17 13:14:00,95.5,73.9,29.86,SE,135,1.0,6.0,50,0.00,,,0.00,meteohub,2014-09-17 18:14:00,
2014-09-17 13:19:00,96.6,74.3,29.86,SE,135,6.0,6.0,49,0.00,,,0.00,meteohub,2014-09-17 18:19:00,
2014-09-17 13:25:00,97.0,74.7,29.86,ENE,68,0.0,4.0,49,0.00,,,0.00,meteohub,2014-09-17 18:25:00,
2014-09-17 13:30:00,97.5,74.5,29.85,SE,135,0.0,6.0,48,0.00,,,0.00,meteohub,2014-09-17 18:30:00,
2014-09-17 13:35:00,98.4,74.1,29.85,SE,135,2.0,6.0,46,0.00,,,0.00,meteohub,2014-09-17 18:35:00,
2014-09-17 13:40:00,98.8,74.3,29.85,SE,135,5.0,5.0,46,0.00,,,0.00,meteohub,2014-09-17 18:40:00,
2014-09-17 13:45:00,99.0,74.5,29.85,SE,135,6.0,6.0,46,0.00,,,0.00,meteohub,2014-09-17 18:45:00,
2014-09-17 13:50:00,98.6,74.3,29.84,East,90,3.0,6.0,46,0.00,,,0.00,meteohub,2014-09-17 18:50:00,
2014-09-17 13:55:00,98.6,73.6,29.84,SE,135,3.0,6.0,45,0.00,,,0.00,meteohub,2014-09-17 18:55:00,
2014-09-17 14:00:00,98.8,73.8,29.84,East,90,0.0,6.0,45,0.00,,,0.00,meteohub,2014-09-17 19:00:00,
2014-09-17 14:05:00,99.3,74.3,29.84,ESE,113,3.0,5.0,45,0.00,,,0.00,meteohub,2014-09-17 19:05:00,
2014-09-17 14:10:00,100.2,75.0,29.83,SE,135,6.0,6.0,45,0.00,,,0.00,meteohub,2014-09-17 19:10:00,
2014-09-17 14:15:00,101.3,75.4,29.83,ENE,68,1.0,6.0,44,0.00,,,0.00,meteohub,2014-09-17 19:15:00,
2014-09-17 14:21:00,102.2,73.9,29.83,ENE,68,3.0,6.0,41,0.00,,,0.00,meteohub,2014-09-17 19:21:00,
2014-09-17 14:26:00,102.9,74.7,29.83,SE,135,0.0,6.0,41,0.00,,,0.00,meteohub,2014-09-17 19:26:00,
2014-09-17 14:31:00,102.7,74.5,29.83,NE,45,6.0,6.0,41,0.00,,,0.00,meteohub,2014-09-17 19:31:00,
2014-09-17 14:36:00,101.8,73.0,29.82,SE,135,4.0,6.0,40,0.00,,,0.00,meteohub,2014-09-17 19:36:00,
2014-09-17 14:41:00,101.1,73.0,29.82,NE,45,3.0,6.0,41,0.00,,,0.00,meteohub,2014-09-17 19:41:00,
2014-09-17 14:46:00,101.5,73.4,29.82,SE,135,3.0,6.0,41,0.00,,,0.00,meteohub,2014-09-17 19:46:00,
2014-09-17 14:51:00,101.5,73.4,29.82,SE,135,3.0,4.0,41,0.00,,,0.00,meteohub,2014-09-17 19:51:00,
2014-09-17 14:56:00,103.8,73.9,29.81,ESE,113,2.0,4.0,39,0.00,,,0.00,meteohub,2014-09-17 19:56:00,
2014-09-17 15:01:00,104.7,74.8,29.81,SW,225,4.0,4.0,39,0.00,,,0.00,meteohub,2014-09-17 20:01:00,
2014-09-17 15:06:00,105.4,74.7,29.81,SSE,158,0.0,4.0,38,0.00,,,0.00,meteohub,2014-09-17 20:06:00,
2014-09-17 15:11:00,106.3,74.7,29.80,SW,225,3.0,7.0,37,0.00,,,0.00,meteohub,2014-09-17 20:11:00,
2014-09-17 15:17:00,106.9,74.3,29.80,NE,45,4.0,7.0,36,0.00,,,0.00,meteohub,2014-09-17 20:17:00,
2014-09-17 15:22:00,106.5,73.9,29.80,SE,135,6.0,7.0,36,0.00,,,0.00,meteohub,2014-09-17 20:22:00,
2014-09-17 15:27:00,105.6,73.9,29.80,NE,45,5.0,6.0,37,0.00,,,0.00,meteohub,2014-09-17 20:27:00,
2014-09-17 15:32:00,106.0,74.3,29.80,NNE,23,1.0,6.0,37,0.00,,,0.00,meteohub,2014-09-17 20:32:00,
2014-09-17 15:37:00,108.1,75.4,29.80,ESE,113,0.0,6.0,36,0.00,,,0.00,meteohub,2014-09-17 20:37:00,
2014-09-17 15:42:00,109.9,75.2,29.80,SE,135,0.0,5.0,34,0.00,,,0.00,meteohub,2014-09-17 20:42:00,
2014-09-17 15:44:00,109.9,75.2,29.80,East,90,0.0,5.0,34,0.00,,,0.00,meteohub,2014-09-17 20:44:00,
2014-09-17 15:49:00,108.1,73.8,29.79,SSE,158,4.0,5.0,34,0.00,,,0.00,meteohub,2014-09-17 20:49:00,
2014-09-17 15:51:00,108.1,74.5,29.79,SSE,158,0.0,3.0,35,0.00,,,0.00,meteohub,2014-09-17 20:51:00,
2014-09-17 15:56:00,108.1,74.5,29.79,ENE,68,0.0,4.0,35,0.00,,,0.00,meteohub,2014-09-17 20:56:00,
2014-09-17 16:01:00,111.7,75.9,29.79,SSE,158,6.0,6.0,33,0.00,,,0.00,meteohub,2014-09-17 21:01:00,
2014-09-17 16:06:00,113.5,76.5,29.79,NE,45,4.0,6.0,32,0.00,,,0.00,meteohub,2014-09-17 21:06:00,
2014-09-17 16:12:00,114.8,76.6,29.79,East,90,5.0,6.0,31,0.00,,,0.00,meteohub,2014-09-17 21:12:00,
2014-09-17 16:17:00,115.3,75.0,29.79,SSE,158,0.0,6.0,29,0.00,,,0.00,meteohub,2014-09-17 21:17:00,
2014-09-17 16:22:00,118.2,75.4,29.79,NE,45,4.0,6.0,27,0.00,,,0.00,meteohub,2014-09-17 21:22:00,
2014-09-17 16:27:00,118.9,76.1,29.79,ESE,113,2.0,6.0,27,0.00,,,0.00,meteohub,2014-09-17 21:27:00,
2014-09-17 16:32:00,119.7,75.6,29.79,SE,135,4.0,5.0,26,0.00,,,0.00,meteohub,2014-09-17 21:32:00,
2014-09-17 16:37:00,120.0,74.7,29.79,SE,135,0.0,5.0,25,0.00,,,0.00,meteohub,2014-09-17 21:37:00,
2014-09-17 16:42:00,117.1,72.1,29.79,SE,135,4.0,5.0,25,0.00,,,0.00,meteohub,2014-09-17 21:42:00,
2014-09-17 16:47:00,116.2,73.8,29.79,SSE,158,0.0,5.0,27,0.00,,,0.00,meteohub,2014-09-17 21:47:00,
2014-09-17 16:52:00,118.2,74.3,29.79,SE,135,6.0,6.0,26,0.00,,,0.00,meteohub,2014-09-17 21:52:00,
2014-09-17 16:57:00,119.1,75.0,29.79,NE,45,2.0,6.0,26,0.00,,,0.00,meteohub,2014-09-17 21:57:00,
2014-09-17 17:02:00,119.5,74.1,29.79,East,90,5.0,6.0,25,0.00,,,0.00,meteohub,2014-09-17 22:02:00,
2014-09-17 17:07:00,118.0,73.0,29.79,ENE,68,2.0,6.0,25,0.00,,,0.00,meteohub,2014-09-17 22:07:00,
2014-09-17 17:12:00,118.2,73.0,29.79,ESE,113,1.0,5.0,25,0.00,,,0.00,meteohub,2014-09-17 22:12:00,
2014-09-17 17:17:00,118.6,74.7,29.79,ESE,113,5.0,5.0,26,0.00,,,0.00,meteohub,2014-09-17 22:17:00,
2014-09-17 17:22:00,118.0,73.0,29.79,SSE,158,5.0,5.0,25,0.00,,,0.00,meteohub,2014-09-17 22:22:00,
2014-09-17 17:27:00,115.0,72.7,29.79,SE,135,2.0,5.0,27,0.00,,,0.00,meteohub,2014-09-17 22:27:00,
2014-09-17 17:32:00,113.4,72.3,29.80,ENE,68,0.0,5.0,28,0.00,,,0.00,meteohub,2014-09-17 22:32:00,
2014-09-17 17:37:00,112.1,77.2,29.80,NNE,23,2.0,5.0,34,0.00,,,0.00,meteohub,2014-09-17 22:37:00,
2014-09-17 17:38:00,112.1,77.2,29.80,NNE,23,2.0,5.0,34,0.00,,,0.00,meteohub,2014-09-17 22:38:00,
2014-09-17 17:43:00,108.3,76.3,29.80,NNE,23,6.0,13.0,37,0.00,,,0.00,meteohub,2014-09-17 22:43:00,
2014-09-17 17:48:00,106.9,76.6,29.80,NNE,23,5.0,13.0,39,0.00,,,0.00,meteohub,2014-09-17 22:48:00,
2014-09-17 17:53:00,105.4,77.7,29.81,ENE,68,11.0,13.0,42,0.00,,,0.00,meteohub,2014-09-17 22:53:00,
2014-09-17 17:58:00,105.4,77.7,29.81,NE,45,8.0,13.0,42,0.00,,,0.00,meteohub,2014-09-17 22:58:00,
2014-09-17 18:04:00,104.7,77.0,29.81,NE,45,2.0,12.0,42,0.00,,,0.00,meteohub,2014-09-17 23:04:00,
2014-09-17 18:08:00,104.7,77.0,29.81,NNE,23,9.0,12.0,42,0.00,,,0.00,meteohub,2014-09-17 23:08:00,
2014-09-17 18:13:00,103.8,76.8,29.81,North,0,10.0,11.0,43,0.00,,,0.00,meteohub,2014-09-17 23:13:00,
2014-09-17 18:18:00,103.1,77.0,29.81,NE,45,6.0,10.0,44,0.00,,,0.00,meteohub,2014-09-17 23:18:00,
2014-09-17 18:23:00,102.6,76.5,29.81,North,0,5.0,10.0,44,0.00,,,0.00,meteohub,2014-09-17 23:23:00,
2014-09-17 18:28:00,100.9,75.7,29.81,NE,45,4.0,10.0,45,0.00,,,0.00,meteohub,2014-09-17 23:28:00,
2014-09-17 18:33:00,100.0,75.6,29.81,NNE,23,6.0,9.0,46,0.00,,,0.00,meteohub,2014-09-17 23:33:00,
2014-09-17 18:38:00,99.0,75.2,29.82,NE,45,5.0,9.0,47,0.00,,,0.00,meteohub,2014-09-17 23:38:00,
2014-09-17 18:43:00,97.3,75.0,29.82,NE,45,2.0,9.0,49,0.00,,,0.00,meteohub,2014-09-17 23:43:00,
2014-09-17 18:48:00,96.3,74.7,29.82,ENE,68,3.0,6.0,50,0.00,,,0.00,meteohub,2014-09-17 23:48:00,
2014-09-17 18:53:00,94.6,74.3,29.82,NE,45,6.0,6.0,52,0.00,,,0.00,meteohub,2014-09-17 23:53:00,
2014-09-17 18:59:00,93.4,74.3,29.82,NNE,23,6.0,7.0,54,0.00,,,0.00,meteohub,2014-09-17 23:59:00,
2014-09-17 19:04:00,92.5,73.9,29.83,ENE,68,5.0,7.0,55,0.00,,,0.00,meteohub,2014-09-18 00:04:00,
2014-09-17 19:09:00,91.2,73.8,29.83,NNE,23,4.0,7.0,57,0.00,,,0.00,meteohub,2014-09-18 00:09:00,
2014-09-17 19:14:00,90.7,73.9,29.83,NNE,23,5.0,8.0,58,0.00,,,0.00,meteohub,2014-09-18 00:14:00,
2014-09-17 19:19:00,89.8,74.1,29.83,NE,45,6.0,8.0,60,0.00,,,0.00,meteohub,2014-09-18 00:19:00,
2014-09-17 19:24:00,89.4,74.1,29.84,NNE,23,7.0,8.0,61,0.00,,,0.00,meteohub,2014-09-18 00:24:00,
2014-09-17 19:29:00,88.9,73.8,29.84,NNE,23,10.0,10.0,61,0.00,,,0.00,meteohub,2014-09-18 00:29:00,
2014-09-17 19:34:00,88.2,73.4,29.84,NNE,23,7.0,10.0,62,0.00,,,0.00,meteohub,2014-09-18 00:34:00,
2014-09-17 19:39:00,87.8,73.6,29.85,NNE,23,9.0,10.0,63,0.00,,,0.00,meteohub,2014-09-18 00:39:00,
2014-09-17 19:44:00,87.4,73.8,29.85,NNE,23,6.0,10.0,64,0.00,,,0.00,meteohub,2014-09-18 00:44:00,
2014-09-17 19:49:00,87.1,73.4,29.86,NE,45,4.0,9.0,64,0.00,,,0.00,meteohub,2014-09-18 00:49:00,
2014-09-17 19:54:00,86.9,73.8,29.86,NE,45,4.0,9.0,65,0.00,,,0.00,meteohub,2014-09-18 00:54:00,
2014-09-17 20:00:00,86.5,73.4,29.85,NE,45,5.0,9.0,65,0.00,,,0.00,meteohub,2014-09-18 01:00:00,
2014-09-17 20:05:00,86.4,73.6,29.85,NNE,23,5.0,5.0,66,0.00,,,0.00,meteohub,2014-09-18 01:05:00,
2014-09-17 20:10:00,85.8,73.2,29.86,NE,45,8.0,8.0,66,0.00,,,0.00,meteohub,2014-09-18 01:10:00,
2014-09-17 20:15:00,85.6,73.4,29.86,NE,45,7.0,8.0,67,0.00,,,0.00,meteohub,2014-09-18 01:15:00,
2014-09-17 20:20:00,85.3,73.0,29.86,NE,45,4.0,8.0,67,0.00,,,0.00,meteohub,2014-09-18 01:20:00,
2014-09-17 20:25:00,85.3,73.0,29.86,NNE,23,6.0,8.0,67,0.00,,,0.00,meteohub,2014-09-18 01:25:00,
2014-09-17 20:30:00,84.9,72.7,29.86,ENE,68,6.0,7.0,67,0.00,,,0.00,meteohub,2014-09-18 01:30:00,
2014-09-17 20:35:00,84.7,73.0,29.87,NE,45,7.0,7.0,68,0.00,,,0.00,meteohub,2014-09-18 01:35:00,
2014-09-17 20:40:00,84.6,72.9,29.87,ENE,68,4.0,10.0,68,0.00,,,0.00,meteohub,2014-09-18 01:40:00,
2014-09-17 20:45:00,84.4,73.0,29.87,ENE,68,6.0,10.0,69,0.00,,,0.00,meteohub,2014-09-18 01:45:00,
2014-09-17 20:51:00,84.2,72.9,29.87,NE,45,3.0,10.0,69,0.00,,,0.00,meteohub,2014-09-18 01:51:00,
2014-09-17 20:55:00,84.0,73.2,29.87,NNE,23,7.0,10.0,70,0.00,,,0.00,meteohub,2014-09-18 01:55:00,
2014-09-17 21:00:00,83.8,73.4,29.87,NE,45,4.0,7.0,71,0.00,,,0.00,meteohub,2014-09-18 02:00:00,
2014-09-17 21:05:00,83.8,73.4,29.88,NE,45,9.0,9.0,71,0.00,,,0.00,meteohub,2014-09-18 02:05:00,
2014-09-17 21:10:00,83.7,73.2,29.88,NE,45,8.0,9.0,71,0.00,,,0.00,meteohub,2014-09-18 02:10:00,
2014-09-17 21:15:00,83.5,73.6,29.88,NE,45,4.0,9.0,72,0.00,,,0.00,meteohub,2014-09-18 02:15:00,
2014-09-17 21:20:00,83.5,73.9,29.89,NNE,23,4.0,9.0,73,0.00,,,0.00,meteohub,2014-09-18 02:20:00,
2014-09-17 21:25:00,83.5,73.9,29.89,NE,45,4.0,8.0,73,0.00,,,0.00,meteohub,2014-09-18 02:25:00,
2014-09-17 21:30:00,83.3,74.1,29.89,NE,45,6.0,6.0,74,0.00,,,0.00,meteohub,2014-09-18 02:30:00,
2014-09-17 21:35:00,83.3,74.1,29.88,NE,45,6.0,6.0,74,0.00,,,0.00,meteohub,2014-09-18 02:35:00,
2014-09-17 21:40:00,83.1,73.9,29.89,ENE,68,5.0,6.0,74,0.00,,,0.00,meteohub,2014-09-18 02:40:00,
2014-09-17 21:45:00,83.1,74.3,29.89,ENE,68,5.0,10.0,75,0.00,,,0.00,meteohub,2014-09-18 02:45:00,
2014-09-17 21:51:00,83.1,74.3,29.89,NE,45,6.0,10.0,75,0.00,,,0.00,meteohub,2014-09-18 02:51:00,
2014-09-17 21:56:00,82.9,74.1,29.89,ENE,68,6.0,10.0,75,0.00,,,0.00,meteohub,2014-09-18 02:56:00,
2014-09-17 22:01:00,82.9,74.1,29.89,NNE,23,6.0,6.0,75,0.00,,,0.00,meteohub,2014-09-18 03:01:00,
2014-09-17 22:06:00,82.8,73.9,29.89,ENE,68,6.0,6.0,75,0.00,,,0.00,meteohub,2014-09-18 03:06:00,
2014-09-17 22:11:00,82.6,74.3,29.89,ENE,68,4.0,6.0,76,0.00,,,0.00,meteohub,2014-09-18 03:11:00,
2014-09-17 22:16:00,82.6,74.3,29.89,NE,45,6.0,6.0,76,0.00,,,0.00,meteohub,2014-09-18 03:16:00,
2014-09-17 22:21:00,82.6,74.3,29.89,NE,45,6.0,6.0,76,0.00,,,0.00,meteohub,2014-09-18 03:21:00,
2014-09-17 22:26:00,82.6,74.3,29.90,NE,45,8.0,8.0,76,0.00,,,0.00,meteohub,2014-09-18 03:26:00,